Location: Archamps
(46.1365°N, 6.1329°E)
Time: 17:49:49
(UTC+00:00)

Cosmos 1553 Rocket - Pass Details

Date: 28 January 2023
Orbit: 942 x 1007 km, 82.9° (Epoch: 29 March)

Event Time Altitude Azimuth Distance (km) Brightness Sun altitude
Rises 18:52:41 0° 178° (S) 3,592 7.0 -24.0°
Reaches altitude 10° 18:55:10 10° 176° (S) 2,652 6.2 -24.4°
Maximum altitude 19:01:10 69° 95° (E) 1,009 3.8 -25.4°
Drops below altitude 10° 19:07:15 10° 13° (NNE) 2,691 6.2 -26.5°
Sets 19:09:47 0° 11° (N) 3,649 6.9 -26.9°
